Hill City, KS

11:36 AM CDT on May 29, 2017 (GMT -0500)
Hill City Municipal

Weather History for KHLC - August, 2014

Change the Weather History Date:

Tuesday, August 26, 2014

  Actual Average Record
Temperature  
Mean Temperature 77 °F 75 °F  
Max Temperature 90 °F 89 °F 108 °F (1936)
Min Temperature 63 °F 61 °F 50 °F (1967)
Cooling Degree Days 11    
Growing Degree Days 26 (Base 50)    
Moisture  
Dew Point 60 °F    
Average Humidity 67    
Maximum Humidity 90    
Minimum Humidity 39    
Precipitation  
Precipitation 0.03 in 0.09 in 0.55 in (2003)
Month to date precipitation 2.37 2.41  
Year to date precipitation 16.04 17.38  
Sea Level Pressure  
Sea Level Pressure 30.06 in    
Wind  
Wind Speed 9 mph (ENE)    
Max Wind Speed 15 mph    
Max Gust Speed 26 mph    
Visibility 10 miles    
Events Rain , Thunderstorm    
T = Trace of Precipitation, MM = Missing Value Source: NWS Daily Summary

Daily Weather History Graph

Daily Weather History Graph

Search for Another Location

Airport or City:

Trip Planner

Search our weather history database for the weather conditions in past years. The results will help you decide how hot, cold, wet, or windy it might be!

Date:

Astronomy

Aug. 26, 2014 Rise Set
Actual Time 7:02 AM CDT 8:19 PM CDT
Civil Twilight 6:34 AM CDT 8:47 PM CDT
Nautical Twilight 6:00 AM CDT 9:20 PM CDT
Astronomical Twilight 5:25 AM CDT 9:55 PM CDT
Moon 8:03 AM CDT (8/26) 8:42 PM CDT (8/26)
Length of Visible Light 14h 12m
Length of Day
13h 16m
New Moon, 1% of the Moon is Illuminated
Aug 26
New Moon
Sep 2
First Quarter
Sep 8
Full
Sep 15
Last Quarter
Sep 24
New

Hourly Weather History & Observations

Time (CDT) Temp. Heat Index Dew Point Humidity Pressure Visibility Wind Dir Wind Speed Gust Speed Precip Events Conditions
12:53 AM 66.0 °F - 55.0 °F 68% 30.06 in 10.0 mi ENE 6.9 mph - N/A   Clear
1:53 AM 66.0 °F - 55.9 °F 70% 30.07 in 10.0 mi NNW 15.0 mph 26.5 mph N/A   Clear
2:04 AM 66.0 °F - 55.9 °F 70% 30.14 in 10.0 mi NW 13.8 mph - N/A   Clear
2:53 AM 66.0 °F - 55.9 °F 70% 30.06 in 10.0 mi NNW 12.7 mph - N/A   Scattered Clouds
3:15 AM 66.0 °F - 55.9 °F 70% 30.13 in 10.0 mi NNW 12.7 mph - N/A Thunderstorm Clear
3:38 AM 64.9 °F - 57.9 °F 78% 30.12 in 10.0 mi North 12.7 mph - 0.00 in Rain , Thunderstorm Light Thunderstorms and Rain
4:03 AM 64.0 °F - 59.0 °F 84% 30.10 in 10.0 mi NE 9.2 mph - 0.00 in   Mostly Cloudy
4:53 AM 63.0 °F - 59.0 °F 87% 30.04 in 10.0 mi Calm Calm - 0.00 in   Scattered Clouds
5:53 AM 63.0 °F - 60.1 °F 90% 30.05 in 10.0 mi North 4.6 mph - 0.00 in   Scattered Clouds
6:53 AM 63.0 °F - 59.0 °F 87% 30.07 in 10.0 mi NNE 3.5 mph - N/A   Clear
7:53 AM 63.0 °F - 57.9 °F 84% 30.10 in 10.0 mi ENE 8.1 mph - N/A   Clear
8:53 AM 64.9 °F - 59.0 °F 81% 30.13 in 10.0 mi ENE 9.2 mph - N/A   Clear
11:53 AM 75.0 °F - 61.0 °F 62% 30.15 in 10.0 mi Variable 6.9 mph - N/A   Clear
12:53 PM 77.0 °F - 63.0 °F 62% 30.11 in 10.0 mi East 8.1 mph - N/A   Clear
1:53 PM 82.9 °F 84.0 °F 63.0 °F 51% 30.08 in 10.0 mi Variable 4.6 mph - N/A   Clear
2:53 PM 87.1 °F 88.3 °F 64.0 °F 46% 30.04 in 10.0 mi SSE 10.4 mph - N/A   Clear
4:53 PM 89.1 °F 89.0 °F 61.0 °F 39% 29.99 in 10.0 mi SE 11.5 mph - N/A   Clear
5:53 PM 89.1 °F 89.3 °F 62.1 °F 40% 29.98 in 10.0 mi South 10.4 mph - N/A   Clear
6:53 PM 86.0 °F 86.3 °F 62.1 °F 44% 29.99 in 10.0 mi SSE 9.2 mph - N/A   Clear
7:53 PM 82.9 °F 84.0 °F 63.0 °F 51% 30.00 in 10.0 mi SE 5.8 mph - N/A   Clear
8:53 PM 78.1 °F - 64.0 °F 62% 30.01 in 10.0 mi East 5.8 mph - N/A   Partly Cloudy
9:53 PM 75.9 °F - 64.9 °F 69% 30.03 in 10.0 mi East 5.8 mph - N/A   Clear
10:53 PM 75.0 °F - 64.9 °F 71% 30.05 in 10.0 mi East 3.5 mph - N/A   Clear
11:53 PM 75.9 °F - 64.9 °F 69% 30.04 in 10.0 mi ESE 3.5 mph - N/A   Clear